SIA22B WSSS-KEWR

Flight info

Callsign SIA22B
Flight time N/A
Altitude 32000
Route TOMAN5B TOMAN L625 AKMON/K0954F320 L625 ANOKI/N0514F320 L625 ARESI/N0502F350 L625 MEVIN B462 KAZIK Y59 AZAMA Y57 SHIBK/N0491F370 Y57 PUTER A590 PASRO/N0488F390 A590 HAMND/N0495F410 DCT TED J511 GKN J124 ORT DCT 63N140W 63N130W 62N120W 59N110W 5530N10000W DCT MISAX DCT SSM DCT BUF DCT HNK FLOSI4
Aircraft A359/H-SDE2E3GHIJ3J4J5LM1ORWXY/LB1D1

Departure

Time N/A
Airport Singapore Changi Airport (WSSS)

Arrival

Time 2026-05-08 02:56
Airport Newark Liberty International Airport (KEWR)
Time Latitude Longitude Altitude Speed Heading
2026-05-08 02:12 42.96790 -78.70387 41008 ft 536 kts 139°
2026-05-08 02:12 42.92985 -78.63303 40953 ft 546 kts 122°
2026-05-08 02:13 42.90144 -78.53720 40948 ft 550 kts 112°
2026-05-08 02:13 42.87734 -78.43798 40939 ft 551 kts 110°
2026-05-08 02:14 42.85368 -78.33853 40938 ft 551 kts 111°
2026-05-08 02:14 42.82955 -78.23913 40942 ft 551 kts 111°
2026-05-08 02:15 42.80516 -78.14022 40935 ft 552 kts 111°
2026-05-08 02:15 42.78052 -78.04099 40940 ft 553 kts 111°
2026-05-08 02:16 42.75582 -77.94188 40937 ft 553 kts 112°
2026-05-08 02:16 42.73104 -77.84282 40943 ft 552 kts 112°
2026-05-08 02:17 42.70623 -77.74405 40959 ft 552 kts 112°
2026-05-08 02:17 42.68135 -77.64543 40960 ft 552 kts 112°
2026-05-08 02:18 42.65652 -77.54748 40955 ft 552 kts 112°
2026-05-08 02:18 42.63146 -77.44898 40959 ft 552 kts 112°
2026-05-08 02:19 42.60881 -77.36031 40929 ft 552 kts 113°
2026-05-08 02:19 42.58359 -77.26197 40925 ft 552 kts 113°
2026-05-08 02:20 42.55828 -77.16362 40924 ft 552 kts 113°
2026-05-08 02:20 42.53286 -77.06534 40926 ft 552 kts 113°
2026-05-08 02:21 42.50739 -76.96722 40925 ft 552 kts 113°
2026-05-08 02:21 42.48184 -76.86917 40927 ft 552 kts 113°
2026-05-08 02:22 42.45615 -76.77100 40926 ft 552 kts 114°
2026-05-08 02:22 42.43038 -76.67296 40925 ft 553 kts 114°
2026-05-08 02:23 42.40888 -76.59145 40926 ft 553 kts 114°
2026-05-08 02:23 42.38292 -76.49338 40908 ft 553 kts 114°
2026-05-08 02:24 42.35688 -76.39541 40924 ft 553 kts 114°
2026-05-08 02:24 42.33080 -76.29769 40924 ft 553 kts 115°
2026-05-08 02:25 42.30459 -76.19987 40905 ft 553 kts 115°
2026-05-08 02:25 42.27835 -76.10235 40893 ft 553 kts 115°
2026-05-08 02:26 42.25211 -76.00520 40894 ft 554 kts 115°
2026-05-08 02:26 42.22564 -75.90761 40916 ft 554 kts 115°
2026-05-08 02:27 42.19910 -75.81012 40921 ft 554 kts 115°
2026-05-08 02:27 42.17247 -75.71268 40920 ft 555 kts 116°
2026-05-08 02:28 42.14568 -75.61506 40913 ft 555 kts 116°
2026-05-08 02:28 42.11878 -75.51744 40913 ft 555 kts 116°
2026-05-08 02:29 42.09186 -75.42005 40896 ft 555 kts 116°
2026-05-08 02:29 42.06451 -75.32273 40906 ft 556 kts 120°
2026-05-08 02:30 42.03100 -75.23029 40910 ft 553 kts 124°
2026-05-08 02:30 41.99613 -75.13820 40915 ft 553 kts 124°
2026-05-08 02:31 41.96124 -75.04610 40893 ft 553 kts 124°
2026-05-08 02:31 41.92635 -74.95414 40634 ft 546 kts 124°
2026-05-08 02:32 41.90928 -74.90911 39722 ft 539 kts 124°
2026-05-08 02:32 41.89218 -74.86425 38422 ft 543 kts 125°
2026-05-08 02:32 41.87484 -74.81894 37213 ft 548 kts 125°
2026-05-08 02:32 41.85752 -74.77358 36564 ft 545 kts 125°
2026-05-08 02:33 41.84024 -74.72840 35871 ft 544 kts 125°
2026-05-08 02:33 41.82292 -74.68322 35159 ft 544 kts 125°
2026-05-08 02:33 41.80561 -74.63814 34340 ft 545 kts 125°
2026-05-08 02:33 41.78822 -74.59290 33420 ft 548 kts 125°
2026-05-08 02:34 41.77074 -74.54748 32492 ft 549 kts 125°
2026-05-08 02:34 41.75321 -74.50198 31595 ft 550 kts 125°
2026-05-08 02:34 41.73562 -74.45643 30648 ft 551 kts 126°
2026-05-08 02:34 41.71794 -74.41076 29621 ft 554 kts 126°
2026-05-08 02:35 41.70014 -74.36482 28660 ft 554 kts 126°
2026-05-08 02:35 41.68029 -74.32198 27960 ft 529 kts 138°
2026-05-08 02:35 41.65507 -74.28828 27336 ft 498 kts 153°
2026-05-08 02:35 41.62670 -74.26600 26781 ft 464 kts 169°
2026-05-08 02:36 41.59638 -74.25537 26269 ft 429 kts 185°
2026-05-08 02:36 41.56828 -74.25689 25860 ft 395 kts 201°
2026-05-08 02:36 41.54373 -74.26933 25488 ft 366 kts 218°
2026-05-08 02:36 41.52504 -74.29113 25110 ft 353 kts 235°
2026-05-08 02:37 41.51387 -74.31995 24844 ft 354 kts 252°
2026-05-08 02:37 41.50477 -74.35118 24718 ft 371 kts 240°
2026-05-08 02:37 41.48793 -74.37757 24626 ft 380 kts 225°
2026-05-08 02:37 41.46515 -74.39542 24298 ft 384 kts 209°
2026-05-08 02:38 41.43867 -74.40266 23726 ft 398 kts 192°
2026-05-08 02:38 41.41092 -74.40268 22980 ft 394 kts 193°
2026-05-08 02:38 41.38444 -74.40780 22272 ft 378 kts 201°
2026-05-08 02:38 41.35922 -74.41617 21613 ft 370 kts 204°
2026-05-08 02:39 41.33470 -74.42546 20932 ft 363 kts 205°
2026-05-08 02:39 41.31065 -74.43512 20333 ft 358 kts 205°
2026-05-08 02:39 41.28693 -74.44495 19708 ft 356 kts 205°
2026-05-08 02:39 41.26340 -74.45491 19058 ft 354 kts 205°
2026-05-08 02:40 41.24000 -74.46481 18406 ft 352 kts 205°
2026-05-08 02:40 41.21673 -74.47469 17699 ft 350 kts 205°
2026-05-08 02:40 41.19358 -74.48455 17011 ft 348 kts 205°
2026-05-08 02:40 41.17090 -74.49423 16349 ft 348 kts 205°
2026-05-08 02:41 41.14782 -74.50408 15695 ft 349 kts 205°
2026-05-08 02:41 41.12468 -74.51395 15020 ft 349 kts 205°
2026-05-08 02:41 41.10155 -74.52381 14368 ft 349 kts 205°
2026-05-08 02:41 41.07830 -74.53352 13751 ft 353 kts 203°
2026-05-08 02:42 41.05391 -74.53964 13004 ft 360 kts 193°
2026-05-08 02:42 41.02896 -74.54232 12276 ft 360 kts 190°
2026-05-08 02:42 41.00413 -74.54446 11577 ft 357 kts 189°
2026-05-08 02:42 40.97943 -74.54661 10996 ft 351 kts 189°
2026-05-08 02:43 40.95568 -74.54863 10838 ft 333 kts 189°
2026-05-08 02:43 40.93313 -74.55060 10708 ft 316 kts 190°
2026-05-08 02:43 40.91170 -74.55253 10558 ft 301 kts 190°
2026-05-08 02:43 40.89130 -74.55439 10439 ft 287 kts 190°
2026-05-08 02:44 40.87187 -74.55617 10304 ft 274 kts 191°
2026-05-08 02:44 40.85321 -74.55790 10176 ft 265 kts 191°
2026-05-08 02:44 40.83483 -74.55951 10046 ft 265 kts 189°
2026-05-08 02:44 40.81628 -74.55947 9928 ft 274 kts 185°
2026-05-08 02:45 40.79675 -74.55859 9873 ft 285 kts 184°
2026-05-08 02:45 40.77704 -74.55749 9508 ft 283 kts 183°
2026-05-08 02:45 40.75731 -74.55640 8955 ft 284 kts 183°
2026-05-08 02:45 40.73765 -74.55531 8548 ft 282 kts 182°
2026-05-08 02:46 40.71818 -74.55424 8194 ft 279 kts 182°
2026-05-08 02:46 40.69879 -74.55320 7877 ft 279 kts 182°
2026-05-08 02:46 40.67944 -74.55217 7545 ft 277 kts 181°
2026-05-08 02:46 40.66021 -74.55096 7213 ft 277 kts 179°
2026-05-08 02:47 40.64131 -74.54694 6931 ft 275 kts 171°
2026-05-08 02:47 40.62269 -74.54153 6721 ft 273 kts 170°
2026-05-08 02:47 40.60410 -74.53607 6467 ft 273 kts 170°
2026-05-08 02:47 40.58554 -74.53064 6211 ft 272 kts 170°
2026-05-08 02:48 40.56712 -74.52528 5953 ft 271 kts 170°
2026-05-08 02:48 40.54879 -74.51947 5804 ft 272 kts 165°
2026-05-08 02:48 40.53191 -74.50885 5682 ft 271 kts 148°
2026-05-08 02:48 40.51881 -74.49097 5138 ft 277 kts 122°
2026-05-08 02:49 40.51079 -74.46803 4696 ft 277 kts 111°
2026-05-08 02:49 40.50524 -74.44395 4367 ft 273 kts 104°
2026-05-08 02:49 40.50157 -74.41959 4040 ft 271 kts 99°
2026-05-08 02:49 40.49972 -74.39507 3730 ft 269 kts 93°
2026-05-08 02:50 40.49971 -74.37061 3422 ft 267 kts 87°
2026-05-08 02:50 40.50151 -74.34644 3180 ft 260 kts 81°
2026-05-08 02:50 40.50488 -74.32389 3068 ft 245 kts 76°
2026-05-08 02:50 40.50936 -74.30292 3000 ft 230 kts 72°
2026-05-08 02:51 40.51550 -74.28460 2995 ft 210 kts 52°
2026-05-08 02:51 40.52511 -74.27137 3004 ft 191 kts 36°
2026-05-08 02:51 40.53627 -74.26357 3001 ft 173 kts 23°
2026-05-08 02:51 40.54694 -74.25734 2926 ft 165 kts 25°
2026-05-08 02:52 40.55722 -74.25076 2717 ft 163 kts 26°
2026-05-08 02:52 40.56739 -74.24425 2479 ft 162 kts 26°
2026-05-08 02:52 40.57744 -74.23790 2274 ft 157 kts 26°
2026-05-08 02:52 40.58700 -74.23184 2047 ft 147 kts 27°
2026-05-08 02:53 40.59586 -74.22621 1852 ft 136 kts 27°
2026-05-08 02:53 40.60410 -74.22098 1674 ft 127 kts 27°
2026-05-08 02:53 40.61196 -74.21598 1499 ft 126 kts 27°
2026-05-08 02:53 40.61985 -74.21095 1346 ft 126 kts 27°
2026-05-08 02:54 40.62777 -74.20592 1175 ft 126 kts 27°
2026-05-08 02:54 40.63567 -74.20089 1010 ft 126 kts 27°
2026-05-08 02:54 40.64361 -74.19584 836 ft 127 kts 27°
2026-05-08 02:54 40.65162 -74.19074 670 ft 127 kts 26°
2026-05-08 02:55 40.65958 -74.18569 479 ft 126 kts 25°
2026-05-08 02:55 40.67520 -74.17578 172 ft 123 kts 25°
2026-05-08 02:55 40.68284 -74.17099 40 ft 123 kts 25°
2026-05-08 02:56 40.68963 -74.16665 26 ft 76 kts 27°
2026-05-08 02:56 40.69290 -74.16463 31 ft 42 kts 14°
2026-05-08 02:56 40.69525 -74.16463 28 ft 24 kts 356°
2026-05-08 02:56 40.69553 -74.16467 27 ft 0 kts 351°
2026-05-08 02:57 40.69557 -74.16468 27 ft 2 kts 350°
2026-05-08 02:57 40.69585 -74.16489 26 ft 6 kts 316°
2026-05-08 02:58 40.69622 -74.16550 27 ft 11 kts 302°
2026-05-08 02:58 40.69673 -74.16691 31 ft 19 kts 294°
2026-05-08 02:58 40.69647 -74.16769 26 ft 12 kts 207°
2026-05-08 02:58 40.69519 -74.16845 27 ft 22 kts 206°
2026-05-08 02:59 40.69379 -74.16936 28 ft 24 kts 205°
2026-05-08 02:59 40.69221 -74.17039 26 ft 23 kts 209°
2026-05-08 02:59 40.69128 -74.17101 30 ft 15 kts 207°
2026-05-08 02:59 40.69018 -74.17170 28 ft 19 kts 204°
2026-05-08 03:00 40.68996 -74.17200 24 ft 0 kts 265°
2026-05-08 03:00 40.69010 -74.17249 30 ft 14 kts 309°
2026-05-08 03:00 40.69082 -74.17246 25 ft 12 kts 20°
2026-05-08 03:00 40.69121 -74.17160 27 ft 11 kts 103°
2026-05-08 03:01 40.69065 -74.17139 25 ft 1 kts 198°
2026-05-08 03:07 40.69013 -74.17173 25 ft 13 kts 218°
2026-05-08 03:07 40.69016 -74.17268 29 ft 10 kts 293°
2026-05-08 03:07 40.69041 -74.17345 29 ft 8 kts 293°
2026-05-08 03:07 40.69063 -74.17409 30 ft 8 kts 295°
2026-05-08 03:08 40.69096 -74.17428 29 ft 3 kts
2026-05-08 03:08 40.69114 -74.17421 26 ft 2 kts 25°
2026-05-08 03:08 40.69118 -74.17418 25 ft 0 kts 23°
2026-05-08 03:09 40.69123 -74.17415 28 ft 0 kts 24°